Location: Newark
(25.6108°S, 54.5803°W)
Time: 02:01:48
(UTC+00:00)

Tiros 1 - Pass Details

Date: 02 November 2020
Orbit: 630 x 664 km, 48.4° (Epoch: 26 November)

Event Time Altitude Azimuth Distance (km) Brightness Sun altitude
Rises 14:50:14 0° 333° (NNW) 2,933 10.6 77.1°
Reaches altitude 10° 14:52:39 10° 341° (NNW) 2,036 10.0 77.4°
Maximum altitude 14:57:01 40° 49° (NE) 969 9.0 77.9°
Drops below altitude 10° 15:01:29 10° 118° (ESE) 2,076 9.9 78.4°
Sets 15:03:58 0° 125° (SE) 2,998 10.6 78.6°
